Weather History for Hoonah, AK

Change the Weather History Date:

Monday, November 26, 2012

  Actual Average Record
Temperature  
Mean Temperature 30 °F -  
Max Temperature 32 °F 35 °F 51 °F (2002)
Min Temperature 28 °F 29 °F 12 °F (2006)
Degree Days  
Heating Degree Days 35    
Moisture  
Dew Point 27 °F    
Average Humidity 88    
Maximum Humidity 93    
Minimum Humidity 79    
Precipitation  
Precipitation 0.00 in - - ()
Sea Level Pressure  
Sea Level Pressure 30.27 in    
Wind  
Wind Speed 10 mph (East)    
Max Wind Speed 14 mph    
Max Gust Speed -    
Visibility 9 miles    
Events Snow    
Averages and records for this station are not official NWS values.
T = Trace of Precipitation, MM = Missing Value Source: NWS Daily Summary

Daily Weather History Graph

Daily Weather History Graph

Search for Another Location

Airport:

Trip Planner

Search our weather history database for the weather conditions in past years. The results will help you decide how hot, cold, wet, or windy it might be!

Date:

Astronomy

Nov. 26, 2012 Rise Set
Actual Time 8:14 AM AKST 3:24 PM AKST
Civil Twilight 7:25 AM AKST 4:12 PM AKST
Nautical Twilight 6:34 AM AKST 5:03 PM AKST
Astronomical Twilight 5:47 AM AKST 5:50 PM AKST
Moon 2:32 PM AKST (11/26) 6:17 AM AKST (11/26)
Length of Visible Light 8h 46m
Length of Day
7h 09m
Waxing Gibbous, 97% of the Moon is Illuminated
Nov 26
Waxing Gibbous
Nov 28
Full
Dec 6
Last Quarter
Dec 12
New
Dec 19
First Quarter

Hourly Weather History & Observations

Time (AKST) Temp. Windchill Dew Point Humidity Pressure Visibility Wind Dir Wind Speed Gust Speed Precip Events Conditions
12:56 AM 31.1 °F 21.9 °F 29.1 °F 92% 30.27 in 4.0 mi East 11.5 mph - 0.00 in Snow Light Snow
1:38 AM 30.2 °F 21.3 °F 28.4 °F 93% 30.26 in 5.0 mi East 10.4 mph - 0.00 in   Mostly Cloudy
1:56 AM 31.1 °F 21.9 °F 29.1 °F 92% 30.27 in 6.0 mi East 11.5 mph - 0.00 in   Overcast
2:17 AM 30.2 °F 20.2 °F 28.4 °F 93% 30.26 in 4.0 mi East 12.7 mph - 0.00 in   Overcast
2:56 AM 30.2 °F 20.8 °F 28.4 °F 93% 30.26 in 5.0 mi East 11.5 mph - N/A   Overcast
3:56 AM 31.1 °F 22.4 °F 29.1 °F 92% 30.27 in 5.0 mi East 10.4 mph - 0.00 in   Overcast
4:15 AM 30.2 °F 20.8 °F 28.4 °F 93% 30.27 in 3.0 mi East 11.5 mph - 0.00 in   Overcast
4:56 AM 31.1 °F 22.4 °F 29.1 °F 92% 30.27 in 4.0 mi ESE 10.4 mph - 0.00 in   Overcast
5:56 AM 30.2 °F 21.3 °F 28.4 °F 93% 30.26 in 9.0 mi ESE 10.4 mph - N/A   Overcast
6:35 AM 30.2 °F 20.8 °F 28.4 °F 93% 30.27 in 10.0 mi ESE 11.5 mph - N/A   Overcast
6:56 AM 31.1 °F 20.9 °F 28.0 °F 88% 30.28 in 10.0 mi East 13.8 mph - N/A   Overcast
7:12 AM 30.2 °F 20.2 °F 28.4 °F 93% 30.28 in 10.0 mi ESE 12.7 mph - 0.00 in   Overcast
7:40 AM 30.2 °F 20.8 °F 28.4 °F 93% 30.28 in 9.0 mi East 11.5 mph - 0.00 in   Overcast
7:56 AM 31.1 °F 20.9 °F 29.1 °F 92% 30.29 in 10.0 mi East 13.8 mph - 0.00 in   Overcast
8:56 AM 30.2 °F 21.3 °F 28.4 °F 93% 30.30 in 10.0 mi East 10.4 mph - N/A   Overcast
9:18 AM 30.2 °F 21.9 °F 28.4 °F 93% 30.30 in 10.0 mi East 9.2 mph - N/A   Overcast
9:56 AM 31.1 °F 22.4 °F 28.0 °F 88% 30.31 in 10.0 mi East 10.4 mph - N/A   Overcast
10:19 AM 32.0 °F 22.1 °F 26.6 °F 80% 30.31 in 10.0 mi ESE 13.8 mph - N/A   Overcast
10:56 AM 32.0 °F 23.0 °F 28.0 °F 85% 30.32 in 10.0 mi East 11.5 mph - N/A   Overcast
11:56 AM 32.0 °F 23.6 °F 27.1 °F 82% 30.32 in 10.0 mi East 10.4 mph - N/A   Mostly Cloudy
12:56 PM 32.0 °F 23.6 °F 27.1 °F 82% 30.31 in 10.0 mi East 10.4 mph - N/A   Overcast
1:56 PM 32.0 °F 24.2 °F 27.1 °F 82% 30.30 in 10.0 mi East 9.2 mph - N/A   Overcast
2:56 PM 32.0 °F 24.2 °F 26.6 °F 80% 30.29 in 10.0 mi East 9.2 mph - N/A   Mostly Cloudy
3:56 PM 32.0 °F 25.6 °F 26.1 °F 79% 30.29 in 10.0 mi East 6.9 mph - N/A   Overcast
4:56 PM 31.1 °F 25.4 °F 26.1 °F 82% 30.27 in 10.0 mi ESE 5.8 mph - N/A   Mostly Cloudy
5:28 PM 30.2 °F 24.3 °F 26.6 °F 86% 30.25 in 10.0 mi East 5.8 mph - N/A   Scattered Clouds
5:56 PM 29.1 °F 23.0 °F 26.1 °F 88% 30.25 in 10.0 mi East 5.8 mph - N/A   Partly Cloudy
6:56 PM 28.0 °F 22.8 °F 26.1 °F 92% 30.25 in 10.0 mi East 4.6 mph - N/A   Clear
7:56 PM 29.1 °F 25.4 °F 25.2 °F 85% 30.25 in 10.0 mi ENE 3.5 mph - N/A   Scattered Clouds
8:11 PM 28.4 °F 23.3 °F 26.6 °F 93% 30.24 in 10.0 mi East 4.6 mph - N/A   Mostly Cloudy
8:25 PM 28.4 °F 24.6 °F 24.8 °F 86% 30.24 in 10.0 mi ENE 3.5 mph - N/A   Partly Cloudy
8:56 PM 29.1 °F 24.1 °F 25.2 °F 85% 30.24 in 10.0 mi ENE 4.6 mph - N/A   Clear
9:56 PM 30.0 °F 24.1 °F 25.2 °F 82% 30.23 in 10.0 mi ENE 5.8 mph - N/A   Clear
10:56 PM 29.1 °F 25.4 °F 25.2 °F 85% 30.22 in 10.0 mi ENE 3.5 mph - N/A   Mostly Cloudy
11:11 PM 28.4 °F 22.2 °F 24.8 °F 86% 30.21 in 10.0 mi ENE 5.8 mph - N/A   Partly Cloudy
11:56 PM 29.1 °F 23.0 °F 25.2 °F 85% 30.20 in 10.0 mi East 5.8 mph - N/A   Clear